Regional Weather Roundup
Issued by NWS Upton, NY

Current Version | Previous Version | Graphics & Text | Print | Product List | Glossary Off
Versions: 1 2 3 4 5 6 7 8 9 10 11 12 13 14 15 16 17 18 19 20 21 22 23 24 25 26 27

000
ASUS41 KOKX 231005
RWROKX

Regional Weather Roundup
National Weather Service New York NY
600 AM EDT MON APR 23 2018

Note: "FAIR" indicates few or no clouds below 12,000 feet with no
significant weather and/or obstructions to visibility.

NYZ071-072-176-178-NJZ106-104-231100-
New York City Metro Area

CITY           SKY/WX    TMP DP  RH WIND       PRES   REMARKS
Central Park   FAIR      46  30  53 CALM      30.46R
Bronx Bot Gard   N/A     43  30  61 N2        30.45
Bronx Lehman C   N/A     45  32  61 N5          N/A
LaGuardia Arpt FAIR      45  39  79 E3        30.44R
Queens College   N/A     45  32  61 NE3         N/A
Kennedy Intl   FAIR      41  35  79 N6        30.44S
Breezy Point     N/A     43 N/A N/A NW1         N/A
Brooklyn Coll    N/A     48  32  53 NW5         N/A
Staten Island    N/A     43  32  65 N3          N/A
Newark/Liberty FAIR      41  31  67 N6        30.44R
Teterboro      FAIR      42  30  62 W3        30.43R
$$

NYZ177-179-078>081-231100-
Long Island New York

CITY           SKY/WX    TMP DP  RH WIND       PRES   REMARKS
Jones Beach      N/A     43 N/A N/A N3          N/A
Wantagh          N/A     37  34  87 N5          N/A  WCI  34
Hempstead        N/A     43  34  70 SW2       30.45
Matinecock Pt    N/A     39 N/A N/A E5          N/A
Farmingdale    FAIR      38  31  76 N5        30.44R WCI  34
MacArthur/ISP  FAIR      36  31  82 N5        30.44R WCI  32
Stony Brook      N/A     39  32  75 SW1         N/A
Shirley        FAIR      33  30  88 CALM      30.45R
Mt Sinai Harb    N/A    N/A N/A N/A MISG        N/A
Westhampton    FAIR      26  20  77 CALM      30.46R
East Hampton   FAIR      28  24  88 CALM      30.45R
Southold         N/A     32  30  93 CALM        N/A
Montauk          N/A     35  32  88 NE3       30.46R
$$

NYZ052-065-067-231100-
Hudson Valley

CITY           SKY/WX    TMP DP  RH WIND       PRES   REMARKS
White Plains   FAIR      41  23  48 N5        30.43R
Larchmont Harb   N/A     39 N/A N/A N3          N/A
Croton On Huds   N/A     37 N/A N/A CALM        N/A
Somers           N/A     37  27  65 NE1         N/A
Brewster         N/A     32  27  80 NW2         N/A
Newburgh       CLEAR     36  25  64 CALM      30.46R
Montgomery     FAIR      30  24  78 CALM      30.45R
Otisville        N/A     32  27  80 SE1         N/A
Warwick          N/A     30  30 100 E2          N/A
Suffern          N/A     46  18  31 NE2         N/A
Poughkeepsie   FAIR      29  24  82 NE3       30.46R
Albany         FAIR      31  23  72 CALM      30.47R
$$

NJZ001-105-106-008-010-013-015-019>022-104-231100-
New Jersey

CITY           SKY/WX    TMP DP  RH WIND       PRES   REMARKS
Newark/Liberty FAIR      41  31  67 N6        30.44R
Teterboro      FAIR      42  30  62 W3        30.43R
Caldwell       FAIR      37  30  75 CALM      30.45R
Somerville     FAIR      33  30  88 NW3       30.41S
Linden         NOT AVBL
Perth Amboy      N/A     43 N/A N/A NE7         N/A
Sussex         FAIR      29  26  89 CALM      30.45R
Andover          N/A     34  30  85 VRB3      30.43S
Trenton        FAIR      38  32  79 N3        30.42S
Millville      FAIR      31  29  92 CALM      30.43R
Atlantic City  FAIR      37  35  92 CALM      30.44R
Wrightstown    FAIR      34  31  90 CALM      30.40
Toms River     FAIR      28  25  88 CALM      30.44S
Belmar         FAIR      38  32  79 SW7       30.44R WCI  33
$$

PAZ047>061-062-071-231100-
Eastern Pennsylvania

CITY           SKY/WX    TMP DP  RH WIND       PRES   REMARKS
Philadelphia   FAIR      43  36  76 SW5       30.43S
Allentown      FAIR      34  27  75 CALM      30.43R
Scranton       FAIR      36  21  54 SE6       30.43R WCI  31
$$

CTZ002-004>006-009-010-012-RIZ004-006-007-MAZ004-011-015-231100-
Southern New England

 In CT

CITY           SKY/WX    TMP DP  RH WIND       PRES   REMARKS
Bradley Intl   FAIR      31  25  78 CALM      30.46R
Hartford       FAIR      34  27  75 CALM      30.47R
Danbury        FAIR      30  25  81 CALM      30.46R
Wtrbury/Oxford FAIR      43  17  35 NE8       30.45R
Norwalk Harbor   N/A     39 N/A N/A N8          N/A  WCI  34
Bridgeport     FAIR      40  28  62 N5        30.45R
Meriden        FAIR      34  27  75 NW3       30.47R
New Haven      FAIR      35  28  75 CALM      30.46R
Chester        FAIR      43  16  33 N5        30.45R
Groton         FAIR      35  27  72 N6        30.45R WCI  30
Willimantic    FAIR      30  25  81 NE3       30.47R

 In RI

CITY           SKY/WX    TMP DP  RH WIND       PRES   REMARKS
Providence     FAIR      38  26  62 W3        30.46R
Block Island   FAIR      43  29  57 N7        30.46R
Westerly       FAIR      32  29  88 NE3       30.46R

In MA

CITY           SKY/WX    TMP DP  RH WIND       PRES   REMARKS
Boston         FAIR      44  20  38 NW6       30.46R
Worcester      FAIR      41  18  39 CALM      30.44R
Westfield      FAIR      28  25  88 CALM      30.47R
Provincetown   FAIR      42  36  79 N6        30.44R
Nantucket      FAIR      35  35 100 CALM      30.42R
$$

ANZ330-335-338-340-345-350-353-355-231100-
Coastal Marine Observations


STATION/POSITION TIME  SKY/WX   TEMP    WIND        PRES    VSBY  WAVE
                                AIR SEA DIR/SP/G                  HT/PER
                 (UTC)          (F)     (DEG/KT/KT) (MB)    (MI)  (FT/S)
NY Harb Entrance 0950            45 46  260/  4/  4 1030.7          1/ 8
20 S Fire Island 0950            46 43  250/  6/  8 1030.5          1/ 9
23 SSW Montauk P 0950            44 43     CALM     1031.4          1/15
15 E Barnegat Li 0930               45                N/A           1/15
Hudson Canyon    0950            46 45  270/  4/  6 1030.7          1/14
Kings Point      0942            42 45   70/  2/  4 1031.5
Execution Rocks  NOT AVBL
Western LI Sound NOT AVBL
Central LI Sound 0930            43      50/  4/  6   N/A           0
Robbins Reef     0942            47     340/  5/  6 1031.0
$$


>>>>>>>>>>>>>>>>>>>>>>>>>>>> KEY <<<<<<<<<<<<<<<<<<<<<<<<<<<
>                                                          <
>     SKY/WX - Sky Condition/Present Weather               <
>     TMP    - Temperature in Fahrenheit                   <
>     DP     - Dew Point in Fahrenheit                     <
>     RH     - Relative Humidity in Percent                <
>     WIND   - Direction (from) and Speed in MPH           <
>     PRES   - Mean Sea Level Pressure (inches of Hg)      <
>     WCI    - Wind Chill Index                            <
>     VSB    - Visibility in Miles                         <
>     HX     - Heat Index                                  <
>     TC     - Temperature in Celsius                      <
>     VRB    - Varibale Wind Direction                     <
>                                                          <
>>>>>>>>>>>>>>>>>>>>>>>>>>>> KEY <<<<<<<<<<<<<<<<<<<<<<<<<<<




USA.gov is the U.S. government's official web portal to all federal, state and local government web resources and services.